TimePST,TemperatureF,Dew PointF,Humidity,Sea Level PressureIn,VisibilityMPH,Wind Direction,Wind SpeedMPH,Gust SpeedMPH,PrecipitationIn,Events,Conditions,WindDirDegrees,DateUTC
12:53 AM,21.9,19.0,89,30.02,10.0,WSW,4.6,-,N/A,,Clear,250,2013-02-21 08:53:00
1:53 AM,23.0,19.9,88,30.04,10.0,WSW,5.8,-,N/A,,Partly Cloudy,250,2013-02-21 09:53:00
2:53 AM,21.0,18.0,88,30.04,10.0,West,3.5,-,N/A,,Clear,260,2013-02-21 10:53:00
3:53 AM,23.0,19.9,88,30.06,10.0,West,5.8,-,N/A,,Overcast,280,2013-02-21 11:53:00
4:53 AM,23.0,19.9,88,30.09,10.0,West,5.8,-,N/A,,Overcast,280,2013-02-21 12:53:00
5:44 AM,21.2,19.4,93,30.02,10.0,South,3.5,-,N/A,,Mostly Cloudy,190,2013-02-21 13:44:00
5:53 AM,19.9,17.1,89,30.12,10.0,SW,4.6,-,N/A,,Scattered Clouds,220,2013-02-21 13:53:00
6:53 AM,21.0,18.0,88,30.13,10.0,West,3.5,-,N/A,,Clear,270,2013-02-21 14:53:00
7:53 AM,24.1,21.0,88,30.14,10.0,SW,4.6,-,N/A,,Overcast,230,2013-02-21 15:53:00
8:53 AM,28.0,23.0,81,30.14,10.0,West,4.6,-,N/A,,Overcast,260,2013-02-21 16:53:00
9:53 AM,30.9,23.0,72,30.13,10.0,WSW,6.9,-,N/A,,Overcast,250,2013-02-21 17:53:00
10:53 AM,32.0,19.9,61,30.14,10.0,WSW,11.5,-,N/A,,Overcast,240,2013-02-21 18:53:00
11:53 AM,34.0,19.9,56,30.13,10.0,SW,6.9,-,N/A,,Overcast,220,2013-02-21 19:53:00
12:53 PM,34.0,21.9,61,30.13,10.0,SW,15.0,-,N/A,,Mostly Cloudy,220,2013-02-21 20:53:00
1:53 PM,36.0,21.0,55,30.10,10.0,SW,11.5,-,N/A,,Overcast,230,2013-02-21 21:53:00
2:53 PM,35.1,21.0,57,30.11,10.0,SW,12.7,-,N/A,,Overcast,220,2013-02-21 22:53:00
3:53 PM,35.1,23.0,61,30.09,10.0,WSW,10.4,-,N/A,,Overcast,240,2013-02-21 23:53:00
4:53 PM,33.1,21.9,64,30.11,10.0,WSW,10.4,-,N/A,,Overcast,250,2013-02-22 00:53:00
5:53 PM,32.0,25.0,75,30.13,10.0,WSW,4.6,-,N/A,,Overcast,250,2013-02-22 01:53:00
6:53 PM,30.0,25.0,82,30.15,10.0,SW,8.1,-,N/A,,Overcast,230,2013-02-22 02:53:00
7:53 PM,28.0,24.1,85,30.16,10.0,SSW,3.5,-,N/A,,Scattered Clouds,200,2013-02-22 03:53:00
8:53 PM,27.0,24.1,89,30.16,10.0,SW,6.9,-,N/A,,Mostly Cloudy,220,2013-02-22 04:53:00
9:53 PM,28.0,24.1,85,30.15,10.0,WSW,3.5,-,N/A,,Overcast,240,2013-02-22 05:53:00
10:53 PM,30.0,25.0,82,30.15,10.0,Calm,Calm,-,N/A,,Overcast,0,2013-02-22 06:53:00
11:53 PM,28.0,25.0,88,30.16,10.0,Calm,Calm,-,0.00,,Overcast,0,2013-02-22 07:53:00